Regional Weather Roundup
Issued by NWS

Home | Current Version | Previous Version | Text Only | Print | Product List | Glossary On
Versions: 1 2 3 4 5 6 7 8 9 10 11 12 13 14 15 16 17 18 19 20 21 22 23 24 25 26 27 28 29 30 31 32 33 34 35 36 37 38 39 40 41 42 43 44 45 46 47 48 49 50
000
ASUS44 KMEG 170810
RWRTN
TENNESSEE HOURLY STATE WEATHER ROUNDUP
NATIONAL WEATHER SERVICE MEMPHIS TN
300 AM CDT WED SEP 17 2014

TNZ002-004-019-021-049-052-054-088>092-170900-
WEST TENNESSEE

CITY           SKY/WX    TMP DP  RH WIND       PRES   REMARKS
MEMPHIS INTL   CLEAR     66  60  81 NE6       30.03F
NWS MEMPHIS      N/A     63 N/A N/A MISG        N/A
JACKSON        CLEAR     60  56  86 NE5       30.04F
DYERSBURG      MOCLDY    57  46  67 NE7       30.07F
UNION CITY     MOCLDY    54  52  94 NE5       30.06F
PARIS          PTCLDY    50  48  93 CALM      30.07F
HUNTINGDON     PTCLDY    55  52  90 NE5       30.06F
LEXINGTON      PTCLDY    59  55  88 N3        30.04F
SAVANNAH       PTCLDY    61  61 100 CALM      30.03F
$$

TNZ008-025-027-028-033-062-065-066-170900-
NORTH MIDDLE TENNESSEE

CITY           SKY/WX    TMP DP  RH WIND       PRES   REMARKS
NASHVILLE      PTCLDY    57  54  89 N5        30.05F
DICKSON        CLEAR     54  52  94 NE3       30.05F
PORTLAND       PTCLDY    52  52 100 CALM      30.05
CLARKSVILLE    CLEAR     52  50  93 N5        30.06F FOG
LEBANON        CLOUDY    56  55  96 CALM      30.04F
SMYRNA         CLOUDY    58  56  93 N3        30.05F
COOKEVILLE     CLOUDY    57  57 100 CALM      30.04S VSB 1/4
GALLATIN       MOCLDY    56  56 100 CALM      30.06F
CROSSVILLE     FOG       58  55  90 NE6       30.06S VSB 1/4
$$

TNZ061-075-076-078-094-096-097-170900-
SOUTH MIDDLE TENNESSEE

CITY           SKY/WX    TMP DP  RH WIND       PRES   REMARKS
LEWISBURG      CLOUDY    61  58  90 N3        30.03F
FAYETTEVILLE   MOCLDY    61  59  94 N5        30.03F
TULLAHOMA      MOCLDY    61  57  88 N3        30.05F
WINCHESTER     MOCLDY    61  61 100 N3        30.05R
MCMINNVILLE      N/A     57  57 100 CALM      30.05S
COLUMBIA       CLOUDY    61  59  94 NW3       30.03S
SHELBYVILLE    MOCLDY    61  57  88 N3        30.04F
$$

TNZ017-018-042-046-047-170900-
NORTHEAST TENNESSEE

CITY           SKY/WX    TMP DP  RH WIND       PRES   REMARKS
TRI CITIES     PTCLDY    61  56  83 CALM      30.03S
ELIZABETHTON   PTSUNNY   57  57 100 CALM      30.03S
$$

TNZ012-013-036-069-073-074-170900-
CENTRAL EAST TENNESSEE

CITY           SKY/WX    TMP DP  RH WIND       PRES   REMARKS
KNOXVILLE      CLOUDY    63  59  87 N5        30.01S
OAK RIDGE      CLEAR     58  56  93 CALM      30.04S
GATLINBURG     PTSUNNY   63  61  94 CALM      30.01S
MORRISTOWN     MOSUNNY   61  59  94 CALM      30.03F
$$

TNZ083-085-099-170900-
SOUTHEAST TENNESSEE

CITY           SKY/WX    TMP DP  RH WIND       PRES   REMARKS
CHATTANOOGA    CLEAR     66  60  81 N3        30.01F
$$

SKY/WX REPORTED AS FAIR MEANS FEW OR NO CLOUDS BELOW
12 THOUSAND FEET.



USA.gov is the U.S. government's official web portal to all federal, state and local government web resources and services.